Location: Oberwangen
(47.4286°N, 8.9679°E)
Time: 08:57:59
(UTC+00:00)

ERS-2 - Pass Details

Date: 20 June 2021
Orbit: 491 x 495 km, 98.5° (Epoch: 04 August)

Event Time Altitude Azimuth Distance (km) Brightness Sun altitude
Rises 19:59:44 0° 7° (N) 2,594 6.3 -5.3°
Reaches altitude 10° 20:01:54 10° 360° (N) 1,707 5.5 -5.6°
Maximum altitude 20:05:20 38° 291° (WNW) 771 3.8 -6.0°
Drops below altitude 10° 20:08:43 10° 222° (SW) 1,694 4.8 -6.4°
Sets 20:10:52 0° 214° (SW) 2,572 5.6 -6.7°
